{"data":{"norad_id":47303,"epoch":"2026-05-25T05:07:31.965888Z","epoch_age_seconds":66854,"freshness":"FRESH","line1":"1 47303U 20103B   26145.21356442  .00000970  00000+0  18977-3 0  9998","line2":"2 47303  98.0562  34.8722 0000863 293.5838  66.5274 14.64996671288360","mean_motion":14.64996671,"eccentricity":8.63e-5,"inclination_deg":98.0562,"raan_deg":34.8722,"arg_perigee_deg":293.5838,"mean_anomaly_deg":66.5274,"bstar":0.00018977,"rev_number":28836,"period_min":98.293738716625,"perigee_km":676.47720002215,"apogee_km":677.6949315233,"semimajor_km":7055.2230657727,"source":"CELESTRAK","updated_at":"2026-05-25T13:37:56.434123Z"}}